TimeAKDT,TemperatureF,Dew PointF,Humidity,Sea Level PressureIn,VisibilityMPH,Wind Direction,Wind SpeedMPH,Gust SpeedMPH,PrecipitationIn,Events,Conditions,WindDirDegrees,DateUTC
12:53 AM,45.0,35.1,68,29.74,10.0,SSW,29.9,38.0,N/A,,Overcast,210,2011-10-27 08:53:00
1:53 AM,44.1,36.0,73,29.76,10.0,SSW,26.5,36.8,N/A,,Overcast,210,2011-10-27 09:53:00
2:53 AM,44.6,35.6,71,29.78,10.0,SSW,26.5,36.8,N/A,,Overcast,210,2011-10-27 10:53:00
3:53 AM,44.1,36.0,73,29.80,10.0,SSW,24.2,33.4,N/A,,Mostly Cloudy,210,2011-10-27 11:53:00
4:53 AM,44.1,37.0,76,29.81,10.0,SSW,18.4,33.4,N/A,,Overcast,200,2011-10-27 12:53:00
5:53 AM,44.1,36.0,73,29.80,10.0,SSW,26.5,34.5,N/A,,Overcast,210,2011-10-27 13:53:00
6:53 AM,44.1,37.0,76,29.80,10.0,South,17.3,28.8,N/A,,Overcast,190,2011-10-27 14:53:00
7:53 AM,43.0,37.9,82,29.81,10.0,SSW,25.3,32.2,0.00,Rain,Light Rain,210,2011-10-27 15:53:00
8:53 AM,43.0,37.9,82,29.80,10.0,SSW,27.6,36.8,0.00,,Overcast,210,2011-10-27 16:53:00
9:53 AM,44.1,37.0,76,29.79,10.0,SSW,28.8,38.0,N/A,,Scattered Clouds,210,2011-10-27 17:53:00
10:53 AM,44.1,37.0,76,29.80,10.0,SSW,26.5,38.0,N/A,,Scattered Clouds,200,2011-10-27 18:53:00
11:53 AM,45.0,36.0,71,29.80,10.0,SSW,25.3,34.5,N/A,,Scattered Clouds,210,2011-10-27 19:53:00
12:53 PM,44.1,36.0,73,29.80,10.0,SSW,24.2,32.2,N/A,,Scattered Clouds,200,2011-10-27 20:53:00
1:53 PM,43.0,36.0,76,29.78,10.0,SSW,24.2,31.1,N/A,,Mostly Cloudy,200,2011-10-27 21:53:00
2:53 PM,42.1,37.9,85,29.78,10.0,SSW,20.7,-,0.00,Rain,Light Rain,200,2011-10-27 22:53:00
3:53 PM,42.1,37.9,85,29.75,10.0,SSW,16.1,24.2,0.00,,Mostly Cloudy,200,2011-10-27 23:53:00
4:53 PM,42.1,37.0,82,29.73,10.0,South,8.1,19.6,0.00,,Overcast,190,2011-10-28 00:53:00
5:53 PM,42.1,37.0,82,29.71,10.0,South,3.5,-,0.00,,Overcast,190,2011-10-28 01:53:00
6:53 PM,41.0,39.0,93,29.69,8.0,Calm,Calm,-,0.01,Rain,Light Rain,0,2011-10-28 02:53:00
7:12 PM,41.0,39.2,93,29.68,8.0,Calm,Calm,-,0.01,Rain,Light Rain,0,2011-10-28 03:12:00
7:35 PM,39.2,39.2,100,29.67,9.0,Calm,Calm,-,0.01,Rain,Light Rain,0,2011-10-28 03:35:00
7:53 PM,39.9,39.0,97,29.66,9.0,Calm,Calm,-,0.02,Rain,Light Rain,0,2011-10-28 03:53:00
8:00 PM,39.2,39.2,100,29.65,10.0,Calm,Calm,-,0.00,Rain,Light Rain,0,2011-10-28 04:00:00
8:16 PM,39.2,39.2,100,29.65,10.0,Calm,Calm,-,0.00,Rain,Light Rain,0,2011-10-28 04:16:00
8:53 PM,39.9,39.0,97,29.62,10.0,Calm,Calm,-,0.01,,Overcast,0,2011-10-28 04:53:00
9:21 PM,39.2,37.4,93,29.61,10.0,NNW,3.5,-,N/A,,Overcast,340,2011-10-28 05:21:00
9:53 PM,39.0,37.9,96,29.59,10.0,Calm,Calm,-,0.00,,Overcast,0,2011-10-28 05:53:00
10:03 PM,39.2,37.4,93,29.59,10.0,NE,3.5,-,N/A,,Overcast,40,2011-10-28 06:03:00
10:53 PM,39.0,37.0,93,29.55,10.0,Calm,Calm,-,N/A,,Overcast,0,2011-10-28 06:53:00
11:02 PM,39.2,37.4,93,29.54,10.0,Calm,Calm,-,N/A,,Overcast,0,2011-10-28 07:02:00
11:09 PM,39.2,37.4,93,29.53,10.0,Calm,Calm,-,N/A,,Overcast,0,2011-10-28 07:09:00
11:53 PM,37.9,37.0,97,29.49,10.0,NNE,4.6,-,N/A,,Overcast,30,2011-10-28 07:53:00